Weather History for KFAR - August, 2013

Change the Weather History Date:

Thursday, August 29, 2013

  Actual Average Record
Temperature  
Mean Temperature 80 °F 66 °F  
Max Temperature 91 °F 78 °F 99 °F (1961)
Min Temperature 69 °F 54 °F 39 °F (1915)
Degree Days  
Heating Degree Days 0 2  
Month to date heating degree days 17 31  
Since 1 June heating degree days 96 120  
Since 1 July heating degree days 34 47  
Cooling Degree Days 15 4  
Month to date cooling degree days 189 161  
Year to date cooling degree days 597 501  
Since 1 June cooling degree days 568 470  
Growing Degree Days 31 (Base 50)    
Moisture  
Dew Point 70 °F    
Average Humidity 73    
Maximum Humidity 94    
Minimum Humidity 52    
Precipitation  
Precipitation 0.09 in 0.09 in 2.71 in (1942)
Month to date precipitation 0.39 2.38  
Year to date precipitation 21.92 15.88  
Snow  
Snow 0.00 in 0.00 in 0.00 in ()
Month to date snowfall 0.0 0.0  
Since 1 June snowfall 0.0 0.0  
Since 1 July snowfall 0.0 0.0  
Snow Depth 0.00 in    
Sea Level Pressure  
Sea Level Pressure 29.87 in    
Wind  
Wind Speed 10 mph (NE)    
Max Wind Speed 24 mph    
Max Gust Speed 30 mph    
Visibility 10 miles    
Events Rain    
T = Trace of Precipitation, MM = Missing Value Source: NWS Daily Summary

Daily Weather History Graph

Daily Weather History Graph

Search for Another Location

Airport or City:

Trip Planner

Search our weather history database for the weather conditions in past years. The results will help you decide how hot, cold, wet, or windy it might be!

Date:

Astronomy

Aug. 29, 2013 Rise Set
Actual Time 6:43 AM CDT 8:11 PM CDT
Civil Twilight 6:11 AM CDT 8:43 PM CDT
Nautical Twilight 5:32 AM CDT 9:21 PM CDT
Astronomical Twilight 4:51 AM CDT 10:03 PM CDT
Moon 12:24 AM CDT (8/29) 3:53 PM CDT (8/29)
Length of Visible Light 14h 32m
Length of Day
13h 28m
Last Quarter, 38% of the Moon is Illuminated
Aug 29
Last Quarter
Sep 5
New
Sep 12
First Quarter
Sep 19
Full
Sep 26
Last Quarter

Hourly Weather History & Observations

Time (CDT) Temp. Heat Index Dew Point Humidity Pressure Visibility Wind Dir Wind Speed Gust Speed Precip Events Conditions
12:53 AM 73.9 °F - 66.9 °F 79% 29.93 in 10.0 mi ESE 4.6 mph - N/A   Clear
1:53 AM 75.0 °F - 68.0 °F 79% 29.92 in 10.0 mi ESE 5.8 mph - N/A   Partly Cloudy
2:41 AM 75.2 °F - 69.8 °F 83% 29.93 in 10.0 mi SE 6.9 mph - N/A   Mostly Cloudy
2:53 AM 75.9 °F - 70.0 °F 82% 29.91 in 10.0 mi SE 8.1 mph - N/A   Mostly Cloudy
3:12 AM 75.2 °F - 69.8 °F 83% 29.91 in 10.0 mi ESE 8.1 mph - N/A   Scattered Clouds
3:53 AM 75.9 °F - 71.1 °F 85% 29.88 in 10.0 mi SSE 5.8 mph - 0.01 in Rain Light Rain
4:53 AM 75.0 °F - 72.0 °F 90% 29.88 in 7.0 mi Calm Calm - 0.03 in Rain Light Rain
5:53 AM 75.9 °F - 72.0 °F 87% 29.86 in 10.0 mi ESE 5.8 mph - 0.00 in Rain Light Rain
6:53 AM 73.9 °F - 71.1 °F 91% 29.83 in 8.0 mi ESE 6.9 mph - 0.00 in   Partly Cloudy
7:53 AM 75.9 °F - 73.0 °F 91% 29.87 in 6.0 mi WSW 11.5 mph - N/A   Mostly Cloudy
8:03 AM 75.2 °F - 73.4 °F 94% 29.91 in 7.0 mi NW 17.3 mph 25.3 mph N/A   Mostly Cloudy
8:13 AM 73.4 °F - 69.8 °F 88% 29.91 in 9.0 mi NW 10.4 mph 27.6 mph 0.00 in Rain Light Rain
8:22 AM 73.4 °F - 69.8 °F 88% 29.91 in 10.0 mi NNW 8.1 mph - 0.01 in Rain Light Rain
8:53 AM 72.0 °F - 68.0 °F 87% 29.89 in 10.0 mi East 5.8 mph - 0.01 in   Mostly Cloudy
9:05 AM 71.6 °F - 69.8 °F 94% 29.90 in 10.0 mi East 5.8 mph - N/A   Scattered Clouds
9:53 AM 73.9 °F - 70.0 °F 87% 29.82 in 9.0 mi ESE 15.0 mph 26.5 mph 0.04 in Rain Light Rain
10:53 AM 79.0 °F - 73.0 °F 82% 29.80 in 9.0 mi SE 16.1 mph 24.2 mph 0.00 in   Partly Cloudy
11:53 AM 84.0 °F 90.2 °F 73.0 °F 69% 29.80 in 10.0 mi South 15.0 mph - N/A   Clear
12:53 PM 87.1 °F 92.8 °F 71.1 °F 59% 29.82 in 10.0 mi SSW 15.0 mph 24.2 mph N/A   Clear
1:53 PM 88.0 °F 94.7 °F 72.0 °F 59% 29.83 in 10.0 mi WSW 11.5 mph - N/A   Partly Cloudy
2:53 PM 88.0 °F 93.8 °F 71.1 °F 57% 29.82 in 10.0 mi West 11.5 mph - N/A   Scattered Clouds
3:53 PM 88.0 °F 93.8 °F 71.1 °F 57% 29.81 in 10.0 mi NNW 11.5 mph - N/A   Scattered Clouds
4:53 PM 89.1 °F 93.7 °F 69.1 °F 52% 29.82 in 10.0 mi NNW 12.7 mph - N/A   Clear
5:53 PM 87.1 °F 90.6 °F 68.0 °F 53% 29.83 in 10.0 mi NNW 16.1 mph - N/A   Clear
6:53 PM 84.0 °F 86.5 °F 66.9 °F 56% 29.85 in 10.0 mi NNW 12.7 mph - N/A   Clear
7:53 PM 80.1 °F 82.7 °F 68.0 °F 67% 29.86 in 10.0 mi North 6.9 mph - N/A   Clear
8:53 PM 75.0 °F - 69.1 °F 82% 29.88 in 10.0 mi North 8.1 mph - N/A   Clear
9:53 PM 73.0 °F - 68.0 °F 84% 29.89 in 10.0 mi NNW 8.1 mph - N/A   Clear
10:53 PM 72.0 °F - 66.0 °F 81% 29.90 in 10.0 mi North 8.1 mph - N/A   Clear
11:53 PM 71.1 °F - 66.0 °F 84% 29.91 in 10.0 mi North 6.9 mph - N/A   Clear